User: anonymous   Login
Location: Zlin
(49.2330°N, 17.6670°E)
Time: 06:57:13
(UTC+01:00)
Language:

ISS - Orbit

View from above orbital plane
View from above orbital plane
View from above satellite
View from above satellite

Ground track
Ground track

The orbit data is extracted from the following two-line orbital elements,

1 25544U 98067A   15064.78949073  .00014390  00000-0  21837-3 0  9994
2 25544 051.6445 240.4797 0008765 072.8089 052.5040 15.54828216931944
Epoch (UTC): 05 March 2015 18:56:51
Eccentricity: 0.0008765
inclination: 51.6445°
perigee height: 397 km
apogee height: 408 km
right ascension of ascending node: 240.4797°
argument of perigee: 72.8089°
revolutions per day: 15.54828216
mean anomaly at epoch: 52.5040°
orbit number at epoch: 93194

The dashed part of the orbit path shows where the satellite is in the earth's shadow,  

DLR